User: anonymous   Login
Location: Miss�
(46.9484°N, 0.1922°W)
Time: 10:49:30
(UTC+00:00)
Language:

BREEZE-M DEB (TANK) - Orbit

View from above orbital plane
View from above orbital plane
View from above satellite
View from above satellite

Ground track
Ground track

The orbit data is extracted from the following two-line orbital elements,

1 29271U 06032C   21137.90744128  .00000599  00000-0  14975-3 0  9993
2 29271  49.5233 304.9727 5299179 116.8785 306.1715  5.11358263269115
Epoch (UTC): 17 May 2021 21:46:42
Eccentricity: 0.5299179
inclination: 49.5233°
perigee height: 312 km
apogee height: 15395 km
right ascension of ascending node: 304.9727°
argument of perigee: 116.8785°
revolutions per day: 5.11358263
mean anomaly at epoch: 306.1715°
orbit number at epoch: 26911

The dashed part of the orbit path shows where the satellite is in the earth's shadow,  

DLR